Probability
0 0 0 0 0 0 0 0 0 0 0 0 0 0 0 0 0 0 0 0 0 0 0 0 0 0 0 0 0 0 0 0 0 0 0 0 0 0 0 0 0 0 0 0
0 0 0 0 0 0 0 0 0 0 0 0 0 0 0 0 0 0 0 0 0 0 0 0 0 0 0 0 0 0 0 0 0 0 0 0 0 0 0 0 0 0 0 0
0 0 0 0 0 0 0 0 0 0 0 0 0 0 0 0 0 0 0 0 0 0 0 0 0 0 0 0 0 0 0 0 0 0 0 0 0 0 0 0 0 0 0 0
0 0 0 0 0 0 0 0 0 0 0 0 0 0 0 0 0 0 0 0 0 0 0 0 0 0 0 0 0 0 0 0 0 0 0 0 0 0 0 0 0 0 0 0
0 0 0 0 0 0 0 0 0 0 0 0 0 0 0 0 0 0 0 0 0 0 0 0 0 0 0 0 0 0 0 0 0 0 0 0 0 0 0 0 0 0 0 0
0 0 0 0 0 0 0 0 0 0 0 0 0 0 0 0 0 0 0 0 0 0 0 0 0 0 0 0 0 0 0 0 0 0 0 0 0 0 0 0 0 0 0 0
0 0 0 0 0 0 0 0 0 0 0 0 0 0 0 0 0 0 0 0 0 0 0 0 0 0 0 0 0 0 0 0 0 0 0 0 0 0 0 0 0 0 0 0
0 0 0 0 0 0 0 0 0 0 0 0 0 0 0 0 0 0 0 0 0 0 0 0 0 0 0 0 0 0 0 0 0 0 0 0 0 0 0 0 0 0 0 0
0 0 0 0 0 0 0 0 0 0 0 0 0 0 0 0 0 0 0 0 0 0 0 0 0 0 0 0 0 0 0 0 0 0 0 0 0 0 0 0 0 0 0 0
0 0 0 0 0 0 0 0 0 0 0 0 0 0 0 0 0 0 0 0 0 0 0 0 0 0 0 0 0 0 0 0 0 0 0 0 0 0 0 0 0 0 0 0
0 0 0 0 0 0 0 0 0 0 0 0 0 0 0 0 0 0 0 0 0 0 0 0 0 0 0 0 0 0 0 0 0 0 0 0 0 0 0 0 0 0 0 0
0 0 0 0 0 0 0 0 0 0 0 0 0 0 0 0 0 0 0 0 0 0 0 0 0 0 0 0 0 0 0 0 0 0 0 0 0 0 0 0 0 0 0 0
0 0 0 0 0 0 0 0 0 0 0 0 0 0 0 0 0 0 0 0 0 0 0 0 0 0 0 0 0 0 0 0 0 0 0 0 0 0 0 0 0 0 0 0
0 0 0 0 0 0 0 0 0 0 0 0 0 0 0 0 0 0 0 0 0 0 0 0 0 0 0 0 0 0 0 0 0 0 0 0 0 0 0 0 0 0 0 0
0 0 0 0 0 0 0 0 0 0 0 0 0 0 0 0 0 0 0 0 0 0 0 0 0 0 0 0 0 0 0 0 0 0 0 0 0 0 0 0 0 0 0 0
0 0 0 0 0 0 0 0 0 0 0 0 0 0 0 0 0 0 0 0 0 0 0 0 0 0 0 0 0 0 0 0 0 0 0 0 0 0 0 0 0 0 0 0
0 0 0 0 0 0 0 0 0 0 0 0 0 0 0 0 0 0 0 0 0 0 0 0 0 0 0 0 0 0 0 0 0 0 0 0 0 0 0 0 0 0 0 0
0 0 0 0 0 0 0 0 0 0 0 0 0 0 0 0 0 0 0 0 0 0 0 0 0 0 0 0 0 0 0 0 0 0 0 0 0 0 0 0 0 0 0 0
0 0 0 0 0 0 0 0 0 0 0 0 0 0 0 0 0 0 0 0 0 0 0 0 0 0 0 0 0 0 0 0 0 0 0 0 0 0 0 0 0 0 0 0
0 0 0 0 0 0 0 0 0 0 0 0 0 0 0 0 0 0 0 0 0 0 0 0 0 0 0 0 0 0 0 0 0 0 0 0 0 0 0 0 0 0 0 0
0 0 0 0 0 0 0 0 0 0 0 0 0 0 0 0 0 0 0 0 0 0 0 0 0 0 0 0 0 0 0 0 0 0 0 0 0 0 0 0 0 0 0 0
0 0 0 0 0 0 0 0 0 0 0 0 0 0 0 0 0 0 0 0 0 0 0 0 0 0 0 0 0 0 0 0 0 0 0 0 0 0 0 0 0 0 0 0
0 0 0 0 0 0 0 0 0 0 0 0 0 0 0 0 0 0 0 0 0 0 0 0 0 0 0 0 0 0 0 0 0 0 0 0 0 0 0 0 0 0 0 0
0 0 0 0 0 0 0 0 0 0 0 0 0 0 0 0 0 0 0 0 0 0 0 0 0 0 0 0 0 0 0 0 0 0 0 0 0 0 0 0 0 0 0 0
0 0 0 0 0 0 0 0 0 0 0 0 0 0 0 0 0 0 0 0 0 0 0 0 0 0 0 0 0 0 0 0 0 0 0 0 0 0 0 0 0 0 0 0
0 0 0 0 0 0 0 0 0 0 0 0 0 0 0 0 0 0 0 0 0 0 0 0 0 0 0 0 0 0 0 0 0 0 0 0 0 0 0 0 0 0 0 0
Height
5699 5704 5706 5709 5713 5716 5719 5722 5725 5728 5730 5733 5735 5737 5738 5739 5741 5742 5743 5744 5744 5745 5744 5744 5744 5743 5743 5742 5741 5741 5740 5738 5737 5735 5734 5732 5730 5728 5727 5726 5726 5726 5726 5727
5700 5703 5705 5708 5711 5713 5716 5719 5721 5724 5726 5728 5730 5731 5732 5734 5735 5736 5737 5737 5737 5737 5737 5737 5736 5736 5735 5734 5733 5732 5731 5729 5727 5725 5724 5722 5720 5718 5716 5715 5714 5714 5714 5714
5700 5703 5705 5708 5710 5712 5714 5716 5718 5720 5721 5723 5725 5727 5728 5729 5729 5730 5730 5730 5730 5730 5730 5729 5729 5728 5727 5726 5725 5724 5722 5720 5718 5716 5714 5712 5710 5707 5705 5704 5703 5703 5702 5703
5700 5703 5705 5707 5709 5710 5712 5713 5715 5716 5718 5719 5721 5722 5724 5723 5724 5724 5724 5724 5724 5723 5723 5722 5721 5720 5719 5718 5717 5715 5714 5711 5709 5707 5704 5702 5700 5698 5696 5694 5693 5692 5691 5691
5702 5703 5705 5706 5708 5709 5710 5711 5713 5714 5715 5716 5716 5717 5719 5718 5718 5718 5718 5718 5718 5717 5716 5715 5714 5713 5712 5711 5709 5707 5705 5703 5700 5698 5695 5693 5691 5689 5687 5685 5683 5682 5681 5681
5703 5704 5705 5706 5707 5708 5709 5710 5711 5711 5712 5713 5713 5714 5715 5714 5714 5714 5713 5713 5712 5711 5710 5709 5708 5707 5705 5703 5702 5700 5698 5695 5692 5690 5687 5685 5682 5680 5679 5677 5675 5673 5672 5671
5704 5705 5705 5706 5706 5707 5708 5709 5710 5710 5710 5711 5710 5710 5711 5710 5710 5709 5708 5708 5707 5706 5704 5703 5702 5700 5699 5697 5695 5693 5690 5687 5684 5682 5679 5677 5674 5672 5670 5669 5667 5665 5664 5663
5705 5706 5706 5706 5707 5707 5707 5708 5709 5709 5708 5708 5707 5707 5708 5707 5706 5705 5704 5703 5702 5700 5699 5697 5696 5694 5693 5690 5688 5686 5683 5680 5677 5674 5672 5669 5667 5665 5663 5661 5659 5658 5656 5654
5706 5707 5706 5706 5706 5707 5706 5707 5707 5707 5706 5706 5705 5705 5705 5703 5702 5701 5700 5698 5697 5695 5694 5692 5691 5689 5687 5684 5682 5679 5676 5673 5670 5667 5665 5662 5659 5657 5655 5653 5651 5650 5648 5646
5707 5708 5707 5707 5707 5707 5707 5706 5706 5706 5704 5704 5703 5702 5701 5700 5698 5697 5695 5693 5692 5690 5689 5687 5685 5683 5681 5678 5676 5673 5670 5667 5664 5661 5658 5655 5652 5650 5648 5645 5643 5641 5639 5637
5709 5709 5709 5708 5707 5707 5707 5706 5705 5704 5703 5702 5700 5702 5698 5696 5695 5693 5691 5689 5688 5686 5684 5682 5680 5677 5675 5673 5670 5667 5664 5661 5658 5654 5651 5648 5645 5642 5640 5637 5635 5633 5631 5628
5710 5710 5709 5708 5707 5706 5705 5704 5704 5703 5701 5699 5697 5700 5695 5693 5691 5689 5687 5685 5683 5681 5679 5677 5674 5672 5670 5667 5664 5661 5658 5655 5652 5648 5645 5642 5638 5635 5632 5629 5627 5624 5622 5619
5711 5710 5709 5709 5709 5707 5704 5703 5701 5700 5699 5697 5695 5698 5691 5689 5687 5685 5683 5681 5679 5676 5674 5672 5670 5667 5665 5662 5659 5656 5653 5649 5645 5642 5638 5635 5631 5628 5625 5622 5619 5616 5613 5610
5711 5710 5710 5709 5707 5705 5703 5702 5700 5698 5696 5695 5694 5692 5690 5686 5684 5682 5679 5677 5675 5672 5670 5668 5665 5662 5659 5656 5653 5650 5647 5643 5639 5635 5632 5628 5625 5621 5618 5614 5611 5607 5604 5601
5711 5710 5708 5707 5705 5703 5702 5700 5698 5696 5694 5692 5691 5689 5686 5683 5681 5678 5676 5673 5671 5668 5666 5663 5660 5657 5654 5651 5648 5644 5641 5637 5633 5629 5626 5622 5618 5615 5611 5607 5603 5599 5596 5593
5709 5708 5707 5706 5703 5701 5700 5698 5696 5693 5691 5689 5687 5685 5683 5680 5677 5675 5672 5669 5667 5664 5661 5658 5655 5652 5649 5646 5642 5638 5635 5631 5627 5623 5619 5615 5612 5608 5604 5599 5595 5591 5587 5583
5707 5706 5704 5703 5701 5699 5698 5696 5693 5691 5689 5686 5684 5683 5679 5677 5674 5671 5668 5665 5662 5660 5657 5654 5650 5647 5644 5640 5637 5633 5629 5625 5621 5617 5613 5609 5605 5600 5596 5592 5587 5583 5578 5574
5705 5702 5701 5700 5699 5697 5697 5692 5690 5687 5685 5682 5680 5677 5675 5672 5670 5667 5664 5661 5658 5655 5652 5648 5645 5642 5638 5634 5631 5627 5623 5619 5615 5611 5606 5602 5597 5592 5588 5583 5579 5574 5569 5565
5701 5699 5697 5695 5693 5692 5691 5688 5684 5683 5681 5678 5675 5672 5670 5667 5664 5662 5658 5655 5652 5649 5646 5643 5639 5636 5632 5629 5625 5621 5617 5612 5608 5604 5599 5594 5589 5584 5580 5575 5570 5565 5560 5555
5696 5694 5693 5690 5687 5687 5687 5682 5679 5678 5675 5672 5669 5666 5664 5661 5659 5657 5653 5649 5646 5643 5640 5636 5633 5629 5626 5622 5618 5614 5610 5605 5601 5596 5591 5587 5582 5576 5571 5566 5561 5556 5550 5545
5691 5688 5687 5683 5681 5681 5679 5676 5673 5671 5669 5666 5662 5660 5657 5654 5652 5650 5646 5643 5639 5636 5633 5629 5626 5622 5619 5615 5611 5607 5602 5598 5593 5588 5583 5578 5573 5568 5562 5557 5551 5546 5541 5535
5684 5682 5680 5677 5675 5676 5672 5668 5666 5664 5660 5657 5655 5652 5650 5648 5645 5642 5638 5635 5632 5629 5625 5622 5618 5614 5611 5607 5603 5599 5594 5590 5585 5580 5575 5569 5564 5559 5553 5548 5542 5537 5531 5525
5677 5675 5671 5670 5670 5666 5663 5660 5657 5655 5652 5650 5647 5645 5642 5639 5636 5633 5630 5627 5624 5620 5617 5613 5609 5606 5602 5598 5594 5590 5585 5581 5576 5571 5566 5560 5554 5549 5544 5538 5532 5527 5521 5515
5668 5665 5662 5661 5661 5658 5654 5650 5648 5646 5643 5641 5638 5636 5633 5631 5628 5625 5622 5618 5615 5611 5608 5604 5601 5597 5593 5589 5585 5580 5576 5571 5567 5561 5556 5550 5545 5539 5533 5528 5522 5516 5510 5504
5659 5655 5652 5651 5650 5647 5645 5641 5639 5636 5634 5632 5629 5627 5624 5621 5619 5615 5612 5609 5606 5602 5599 5595 5591 5587 5583 5579 5575 5571 5566 5561 5557 5551 5546 5540 5534 5529 5523 5517 5511 5505 5499 5493
5649 5644 5640 5640 5639 5636 5635 5632 5629 5627 5624 5622 5619 5617 5614 5611 5609 5606 5603 5599 5596 5593 5589 5585 5581 5577 5573 5569 5565 5561 5556 5551 5546 5541 5536 5530 5524 5518 5513 5507 5500 5494 5488 5482
Wind_Speed
18 19 19 20 22 23 23 24 26 27 28 28 30 30 31 32 32 32 33 33 34 34 34 35 35 36 37 37 37 37 37 37 38 39 39 41 42 43 44 46 48 49 50 51
15 16 16 17 19 19 20 21 23 24 26 27 28 28 28 29 30 31 32 32 33 33 33 34 35 35 36 36 36 36 36 37 37 38 39 40 41 41 43 45 46 47 48 49
11 13 14 15 16 16 16 18 19 21 22 23 24 25 25 26 27 29 30 31 32 32 33 33 33 33 34 34 35 35 35 36 37 38 39 39 40 40 41 42 45 45 46 47
9 9 10 11 12 14 14 15 17 18 19 20 22 22 22 23 24 25 26 27 28 29 30 31 31 32 32 33 33 34 34 35 36 36 37 37 37 37 38 39 40 42 43 44
7 7 7 8 9 10 11 12 13 14 15 16 17 19 19 20 20 21 22 23 24 25 26 27 28 29 30 30 31 31 32 32 33 33 33 34 34 34 34 34 36 38 40 41
5 5 6 7 7 8 9 10 11 12 13 13 14 15 15 16 16 17 18 20 21 22 23 23 24 26 27 27 28 28 29 30 31 31 31 31 32 32 32 33 33 34 35 37
4 4 4 5 6 6 7 7 8 9 9 10 11 12 12 13 14 15 16 17 18 19 19 21 22 23 24 25 26 27 28 28 29 30 30 30 31 31 31 32 31 32 33 35
3 3 3 3 4 4 4 5 6 7 7 8 9 10 11 12 13 14 15 16 17 17 18 19 21 22 23 23 24 25 26 26 27 28 28 28 29 29 30 31 30 31 33 33
3 3 3 2 2 2 2 2 3 5 6 7 9 9 10 12 13 14 15 16 16 17 17 18 19 20 21 22 23 24 25 25 26 26 27 28 28 29 30 30 31 31 32 32
5 4 3 2 2 1 0 2 3 5 7 8 8 9 11 12 13 14 15 16 16 17 18 19 20 20 21 22 23 24 24 24 24 25 26 27 28 29 29 30 30 31 31 32
6 4 3 2 1 1 2 3 4 5 6 8 9 9 11 12 12 13 14 15 16 17 17 19 20 20 20 21 21 22 22 22 23 24 25 26 27 28 28 29 29 30 31 32
6 5 4 3 2 2 3 4 6 7 7 8 9 9 11 12 13 14 14 15 16 16 17 18 18 19 20 20 21 21 22 23 24 25 26 26 27 28 28 29 30 31 32 32
5 5 4 3 4 4 4 6 7 8 8 9 9 9 11 13 14 14 15 15 15 15 16 16 17 18 19 20 20 21 22 23 24 25 26 26 27 27 28 29 30 31 31 31
5 5 5 5 6 6 6 8 9 9 10 10 10 10 12 14 14 14 15 15 15 15 15 17 18 18 19 20 21 22 23 23 24 24 25 25 26 27 27 29 30 31 32 32
6 6 7 7 8 7 8 9 10 10 11 11 11 11 12 13 13 14 15 15 15 16 16 17 18 18 19 20 21 22 23 24 24 24 25 26 27 28 29 30 31 32 33 33
8 8 8 9 9 9 9 10 10 11 12 12 12 12 13 13 14 14 15 15 16 17 18 18 19 19 20 21 22 23 24 24 24 25 26 27 28 29 30 31 32 33 33 34
10 10 10 10 11 11 11 11 11 12 13 14 14 14 15 15 16 16 16 16 17 18 19 19 20 20 21 22 23 24 24 25 25 27 28 28 29 31 32 33 33 34 34 35
12 13 13 13 13 13 13 14 14 14 15 16 16 17 17 17 17 18 19 19 20 20 21 21 22 22 23 23 24 24 25 25 27 28 29 30 32 32 33 33 34 35 36 36
15 16 16 15 15 15 16 17 18 18 18 19 19 19 19 19 19 19 20 21 22 22 23 23 24 24 24 25 26 26 27 27 28 29 30 31 33 33 34 35 35 36 37 37
19 19 19 19 20 19 19 20 21 21 21 21 22 21 21 21 21 22 23 23 24 24 25 25 26 26 26 27 28 28 29 29 30 31 32 33 33 34 34 35 36 37 37 38
22 22 22 22 22 22 23 23 24 24 24 24 24 24 23 24 24 24 25 25 26 26 27 28 28 29 29 29 29 29 30 31 32 34 35 35 35 35 36 36 37 37 38 38
25 25 25 25 25 25 26 26 27 27 27 27 26 26 26 26 26 26 26 27 27 28 29 29 30 30 31 31 31 31 32 33 34 35 36 37 37 37 37 38 38 39 39 40
27 27 28 28 27 27 28 28 29 29 28 28 28 28 28 28 28 28 28 29 30 31 31 32 32 32 32 33 33 34 34 35 36 37 38 38 38 38 39 39 40 40 41 41
29 30 31 30 29 30 31 30 30 29 29 29 29 30 30 30 30 30 31 31 32 32 33 33 33 34 34 34 35 36 37 37 38 39 40 40 40 40 40 40 41 41 42 42
32 34 34 33 32 33 32 33 33 32 32 32 32 31 31 32 32 32 33 33 33 33 34 34 35 35 35 35 36 37 38 39 39 40 40 41 40 41 41 41 41 42 43 43
33 36 37 36 35 36 34 35 35 35 35 35 35 34 34 34 33 34 34 34 34 34 35 35 36 36 36 36 37 38 39 39 40 40 41 41 41 41 41 41 42 43 43 43
Wind_Direction
195 202 208 214 218 223 227 230 233 237 241 244 246 247 250 252 255 257 259 262 263 265 266 268 269 270 270 271 272 271 272 272 273 273 274 273 273 271 269 267 264 263 262 261
190 199 206 212 218 224 229 233 235 239 243 246 249 250 251 253 257 259 261 263 265 266 268 269 270 271 272 272 272 273 273 273 274 274 274 274 274 272 270 268 266 264 263 263
188 197 206 213 220 226 230 234 237 240 244 247 248 250 253 255 258 260 262 264 266 268 269 270 270 272 273 274 274 274 274 275 276 276 275 275 276 274 273 271 268 266 265 263
181 191 205 216 224 230 236 239 241 241 246 250 253 255 255 257 259 261 263 265 266 267 269 270 271 273 275 275 276 276 277 278 278 278 277 275 275 274 274 273 271 268 266 264
171 183 194 206 218 227 235 238 241 244 249 252 254 257 257 260 261 262 263 265 267 269 271 273 274 275 277 278 279 280 280 280 280 280 280 279 277 276 275 275 274 271 268 266
158 181 199 210 217 224 232 236 239 246 251 252 254 257 257 260 262 264 266 268 270 273 274 275 277 279 280 281 281 282 283 283 282 281 280 280 280 278 276 275 274 274 272 270
141 165 194 211 218 224 232 239 245 249 251 252 257 260 262 261 262 265 268 271 273 275 276 278 280 282 283 283 284 285 285 285 284 283 283 282 281 280 278 277 275 275 274 273
134 152 168 187 205 223 227 240 250 257 261 260 261 264 265 266 268 270 271 273 275 276 277 280 282 284 284 285 286 287 287 287 287 286 285 285 284 283 281 278 278 277 277 276
107 120 127 137 162 190 206 240 257 267 269 269 269 271 270 273 276 276 277 278 279 279 280 282 285 286 287 288 289 289 290 290 290 289 288 287 286 284 283 282 280 279 278 277
88 98 103 100 92 117 277 287 290 290 289 285 282 279 280 282 284 284 284 284 283 283 285 287 288 289 290 291 292 292 293 293 292 292 290 289 288 287 286 284 282 281 280 278
68 74 76 78 55 328 303 301 303 305 302 301 297 294 292 290 291 291 291 289 288 288 287 287 289 291 293 294 295 296 296 296 296 295 294 293 291 289 288 287 285 283 282 280
58 60 57 43 32 355 318 309 307 306 307 309 308 308 302 300 298 296 293 291 291 291 289 289 290 292 294 295 297 299 300 299 299 299 297 296 295 293 291 289 288 287 285 282
44 38 32 15 359 343 321 313 312 310 310 309 311 311 306 305 303 302 301 298 295 293 291 291 293 294 296 298 299 302 303 304 304 303 302 300 299 296 294 293 291 290 288 286
17 5 355 345 336 330 321 313 311 311 311 310 309 305 303 304 304 305 305 303 301 299 297 297 299 299 299 301 302 304 306 306 307 307 306 305 303 301 299 297 295 293 290 288
348 342 334 331 325 323 319 312 310 311 311 312 310 306 302 306 305 305 305 303 302 302 301 301 303 302 302 304 306 306 307 309 309 309 308 306 304 303 302 300 299 297 294 291
327 323 320 321 318 318 317 310 309 310 310 311 310 308 307 310 310 309 307 305 305 306 307 305 303 304 304 306 308 309 310 309 310 310 308 307 306 305 304 304 303 301 298 295
317 312 308 308 307 308 308 305 305 306 307 307 308 307 307 308 308 309 308 307 306 307 308 308 306 306 306 307 308 309 309 309 308 308 308 307 307 307 307 306 305 303 300 297
308 306 304 303 301 303 305 302 303 302 302 303 303 303 305 305 305 305 304 303 303 304 306 307 307 307 307 307 308 309 310 310 310 309 308 309 308 308 307 307 306 305 303 301
299 300 300 299 299 300 301 300 300 299 298 298 299 300 301 301 302 303 304 304 304 304 305 305 305 305 305 305 306 308 309 311 312 313 312 311 310 308 307 307 306 306 305 303
295 294 294 295 295 296 297 296 297 297 295 295 296 297 297 297 298 300 302 302 303 304 304 303 303 303 304 305 306 307 308 310 311 312 312 311 310 309 308 308 307 306 305 304
290 289 289 289 291 293 294 294 294 293 294 293 294 295 294 295 297 297 297 299 300 302 302 303 302 302 303 304 305 305 307 308 309 310 310 310 310 309 308 308 309 308 307 306
288 287 286 286 288 291 291 291 291 291 291 291 291 291 293 294 295 295 296 298 299 300 301 301 301 301 302 303 304 304 305 307 308 309 310 310 309 308 308 308 308 308 308 308
286 286 285 285 287 288 289 290 290 289 290 290 290 290 291 292 293 293 295 295 296 298 299 300 300 300 300 301 302 303 304 305 307 309 309 309 309 308 308 308 308 308 308 308
285 284 284 284 284 284 286 286 286 287 288 288 289 290 290 292 292 292 294 294 294 296 298 299 299 299 300 300 301 301 302 303 306 308 309 309 309 308 308 308 309 309 309 309
285 284 284 283 282 281 282 283 282 283 285 286 288 290 291 291 291 292 294 295 295 296 298 299 300 300 300 300 301 301 302 303 305 307 308 308 308 308 309 309 310 310 311 311
283 284 283 283 283 282 281 281 281 282 284 286 287 288 289 290 291 292 294 294 295 297 299 299 300 299 299 300 301 302 303 303 305 306 307 308 308 308 309 310 311 312 312 312